Location: Bambrugge
(50.9212°N, 3.9299°E)
Time: 23:05:46
(UTC+00:00)

Helios 1A Rocket - Pass Details

Date: 13 August 2024
Orbit: 512 x 533 km, 98.3° (Epoch: 07 September)

Event Time Altitude Azimuth Distance (km) Brightness Sun altitude
Exits shadow 01:50:14 37° 266° (W) 869 3.5 -19.4°
Drops below altitude 10° 01:53:47 10° 330° (NNW) 1,822 5.8 -19.1°
Sets 01:56:02 0° 339° (NNW) 2,718 6.9 -18.9°
